Location: *
(2.5500°S, 65.9667°W)
Time: 16:35:36
(UTC+00:00)

A-11 Canister half - Pass Details

Date: 16 April 2024
Orbit: 1525 x 1683 km, 47.3° (Epoch: 21 May)

Event Time Altitude Azimuth Distance (km) Brightness Sun altitude
Exits shadow 09:44:56 11° 260° (W) 3,713 10.3 -10.0°
Maximum altitude 09:52:09 26° 311° (NW) 2,787 10.0 -8.2°
Drops below altitude 10° 10:00:04 10° 4° (N) 3,907 11.3 -6.2°
Sets 10:04:01 0° 16° (NNE) 4,908 12.0 -5.3°
